ARG1301 SAZB-SABE

Flight info

Callsign ARG1301
Flight time 0h 49m
Altitude 37000
Route PULAS1C PULAS UW22 VALOS VALOS9R
Aircraft A319/M-SDE3FGHIRWY/LB1

Departure

Time 2026-05-09 01:38
Airport Comandante Espora Airport (SAZB)

Arrival

Time 2026-05-09 02:28
Airport Aeroparque Jorge Newbery (SABE)
Time Latitude Longitude Altitude Speed Heading
2026-05-09 01:28 -38.71607 -62.16307 257 ft 0 kts 277°
2026-05-09 01:33 -38.71607 -62.16305 257 ft 2 kts 276°
2026-05-09 01:33 -38.71609 -62.16288 257 ft 2 kts 276°
2026-05-09 01:33 -38.71610 -62.16271 257 ft 2 kts 249°
2026-05-09 01:33 -38.71603 -62.16257 257 ft 2 kts 191°
2026-05-09 01:34 -38.71600 -62.16256 257 ft 0 kts 185°
2026-05-09 01:35 -38.71603 -62.16256 257 ft 1 kts 185°
2026-05-09 01:35 -38.71613 -62.16252 257 ft 2 kts 148°
2026-05-09 01:35 -38.71630 -62.16235 257 ft 4 kts 133°
2026-05-09 01:36 -38.71643 -62.16188 257 ft 7 kts 105°
2026-05-09 01:36 -38.71651 -62.16116 257 ft 10 kts 97°
2026-05-09 01:36 -38.71633 -62.16027 257 ft 12 kts 61°
2026-05-09 01:36 -38.71594 -62.15944 257 ft 9 kts 59°
2026-05-09 01:37 -38.71564 -62.15870 258 ft 10 kts 67°
2026-05-09 01:37 -38.71561 -62.15777 258 ft 10 kts 132°
2026-05-09 01:37 -38.71628 -62.15755 258 ft 12 kts 162°
2026-05-09 01:37 -38.71820 -62.15682 257 ft 61 kts 163°
2026-05-09 01:38 -38.72437 -62.15451 258 ft 122 kts 163°
2026-05-09 01:38 -38.73380 -62.15089 469 ft 150 kts 167°
2026-05-09 01:38 -38.74371 -62.14669 1130 ft 152 kts 161°
2026-05-09 01:38 -38.75090 -62.13605 1638 ft 177 kts 115°
2026-05-09 01:39 -38.75023 -62.11901 1943 ft 214 kts 73°
2026-05-09 01:39 -38.74362 -62.10064 2268 ft 240 kts 67°
2026-05-09 01:39 -38.73572 -62.08068 2700 ft 264 kts 67°
2026-05-09 01:39 -38.72699 -62.05909 3411 ft 278 kts 69°
2026-05-09 01:40 -38.71584 -62.03843 4310 ft 292 kts 49°
2026-05-09 01:40 -38.69858 -62.02366 5167 ft 305 kts 31°
2026-05-09 01:40 -38.67963 -62.01108 5989 ft 311 kts 31°
2026-05-09 01:40 -38.66140 -61.99611 6762 ft 312 kts 46°
2026-05-09 01:41 -38.64526 -61.97745 7645 ft 315 kts 49°
2026-05-09 01:41 -38.62915 -61.95841 8491 ft 318 kts 50°
2026-05-09 01:41 -38.61287 -61.93909 9341 ft 322 kts 50°
2026-05-09 01:41 -38.59642 -61.91953 10161 ft 327 kts 49°
2026-05-09 01:42 -38.57927 -61.89905 10467 ft 350 kts 48°
2026-05-09 01:42 -38.56096 -61.87711 10688 ft 373 kts 47°
2026-05-09 01:42 -38.54158 -61.85396 11074 ft 388 kts 47°
2026-05-09 01:42 -38.52169 -61.83036 11757 ft 393 kts 46°
2026-05-09 01:43 -38.50159 -61.80666 12491 ft 395 kts 45°
2026-05-09 01:43 -38.48169 -61.78326 13221 ft 397 kts 45°
2026-05-09 01:43 -38.46133 -61.75927 13898 ft 400 kts 46°
2026-05-09 01:43 -38.44091 -61.73515 14579 ft 402 kts 45°
2026-05-09 01:44 -38.42034 -61.71090 15247 ft 405 kts 46°
2026-05-09 01:44 -38.39962 -61.68648 15886 ft 408 kts 46°
2026-05-09 01:44 -38.37876 -61.66189 16515 ft 411 kts 46°
2026-05-09 01:44 -38.35781 -61.63715 17127 ft 413 kts 46°
2026-05-09 01:45 -38.33671 -61.61221 17729 ft 416 kts 46°
2026-05-09 01:45 -38.31548 -61.58714 18316 ft 419 kts 46°
2026-05-09 01:45 -38.29408 -61.56197 18900 ft 421 kts 45°
2026-05-09 01:45 -38.27247 -61.53665 19463 ft 424 kts 45°
2026-05-09 01:46 -38.25076 -61.51128 19999 ft 426 kts 45°
2026-05-09 01:46 -38.22889 -61.48576 20524 ft 429 kts 45°
2026-05-09 01:46 -38.20697 -61.46013 21021 ft 431 kts 46°
2026-05-09 01:46 -38.18491 -61.43427 21492 ft 433 kts 45°
2026-05-09 01:47 -38.16273 -61.40829 21961 ft 436 kts 45°
2026-05-09 01:47 -38.14043 -61.38222 22420 ft 438 kts 45°
2026-05-09 01:47 -38.11798 -61.35604 22855 ft 440 kts 45°
2026-05-09 01:47 -38.09543 -61.32978 23260 ft 442 kts 45°
2026-05-09 01:48 -38.07278 -61.30340 23677 ft 444 kts 45°
2026-05-09 01:48 -38.05000 -61.27685 24088 ft 446 kts 45°
2026-05-09 01:48 -38.02713 -61.25024 24470 ft 449 kts 45°
2026-05-09 01:48 -38.00411 -61.22349 24841 ft 451 kts 45°
2026-05-09 01:49 -37.98095 -61.19661 25201 ft 454 kts 44°
2026-05-09 01:49 -37.95765 -61.16960 25530 ft 457 kts 44°
2026-05-09 01:49 -37.93419 -61.14238 25848 ft 460 kts 44°
2026-05-09 01:49 -37.91054 -61.11501 26158 ft 463 kts 43°
2026-05-09 01:50 -37.88678 -61.08752 26478 ft 465 kts 43°
2026-05-09 01:50 -37.86289 -61.05988 26791 ft 467 kts 43°
2026-05-09 01:50 -37.83889 -61.03214 27084 ft 470 kts 43°
2026-05-09 01:50 -37.81472 -61.00431 27371 ft 472 kts 43°
2026-05-09 01:51 -37.79038 -60.97635 27634 ft 475 kts 43°
2026-05-09 01:51 -37.76597 -60.94825 27912 ft 477 kts 43°
2026-05-09 01:51 -37.74142 -60.92000 28192 ft 479 kts 43°
2026-05-09 01:51 -37.71681 -60.89172 28508 ft 480 kts 42°
2026-05-09 01:52 -37.69219 -60.86345 28911 ft 478 kts 42°
2026-05-09 01:52 -37.66759 -60.83541 29280 ft 478 kts 40°
2026-05-09 01:52 -37.64158 -60.80937 29635 ft 478 kts 37°
2026-05-09 01:52 -37.61524 -60.78390 29996 ft 478 kts 37°
2026-05-09 01:53 -37.58877 -60.75881 30378 ft 477 kts 36°
2026-05-09 01:53 -37.56223 -60.73396 30744 ft 476 kts 36°
2026-05-09 01:53 -37.53569 -60.70923 31102 ft 475 kts 36°
2026-05-09 01:53 -37.50923 -60.68450 31462 ft 475 kts 36°
2026-05-09 01:54 -37.48282 -60.65970 31829 ft 474 kts 36°
2026-05-09 01:54 -37.45648 -60.63483 32205 ft 473 kts 36°
2026-05-09 01:54 -37.43027 -60.61003 32584 ft 472 kts 36°
2026-05-09 01:54 -37.40412 -60.58531 32948 ft 471 kts 36°
2026-05-09 01:55 -37.37796 -60.56065 33311 ft 470 kts 36°
2026-05-09 01:55 -37.35187 -60.53608 33661 ft 469 kts 36°
2026-05-09 01:55 -37.32582 -60.51155 34014 ft 469 kts 36°
2026-05-09 01:55 -37.29977 -60.48705 34370 ft 468 kts 36°
2026-05-09 01:56 -37.27377 -60.46264 34706 ft 468 kts 36°
2026-05-09 01:56 -37.24774 -60.43823 35022 ft 468 kts 36°
2026-05-09 01:56 -37.22173 -60.41388 35320 ft 468 kts 36°
2026-05-09 01:56 -37.19569 -60.38952 35613 ft 468 kts 36°
2026-05-09 01:57 -37.16961 -60.36514 35887 ft 469 kts 36°
2026-05-09 01:57 -37.14351 -60.34076 36150 ft 469 kts 36°
2026-05-09 01:57 -37.11739 -60.31640 36416 ft 469 kts 36°
2026-05-09 01:57 -37.09120 -60.29204 36658 ft 470 kts 36°
2026-05-09 01:58 -37.03893 -60.24339 36749 ft 468 kts 36°
2026-05-09 01:58 -36.98700 -60.19513 36737 ft 464 kts 35°
2026-05-09 01:59 -36.93532 -60.14729 36739 ft 463 kts 35°
2026-05-09 01:59 -36.88373 -60.09951 36738 ft 462 kts 35°
2026-05-09 02:00 -36.83226 -60.05161 36739 ft 462 kts 35°
2026-05-09 02:00 -36.78085 -60.00388 36738 ft 462 kts 35°
2026-05-09 02:01 -36.72936 -59.95627 36739 ft 462 kts 34°
2026-05-09 02:01 -36.67781 -59.90875 36737 ft 461 kts 34°
2026-05-09 02:02 -36.62631 -59.86131 36738 ft 461 kts 34°
2026-05-09 02:02 -36.57479 -59.81403 36742 ft 461 kts 34°
2026-05-09 02:03 -36.52328 -59.76677 36743 ft 461 kts 34°
2026-05-09 02:03 -36.47187 -59.71954 36741 ft 460 kts 34°
2026-05-09 02:04 -36.42047 -59.67251 36740 ft 460 kts 34°
2026-05-09 02:04 -36.36902 -59.62561 36742 ft 460 kts 34°
2026-05-09 02:05 -36.31753 -59.57871 36745 ft 460 kts 34°
2026-05-09 02:05 -36.26613 -59.53189 36749 ft 460 kts 34°
2026-05-09 02:06 -36.21467 -59.48509 36753 ft 460 kts 34°
2026-05-09 02:07 -36.13738 -59.41505 36760 ft 460 kts 34°
2026-05-09 02:07 -36.08585 -59.36844 36766 ft 460 kts 34°
2026-05-09 02:08 -36.03433 -59.32179 36767 ft 460 kts 34°
2026-05-09 02:08 -35.98273 -59.27526 36734 ft 460 kts 34°
2026-05-09 02:08 -35.95692 -59.25204 36482 ft 460 kts 33°
2026-05-09 02:09 -35.93116 -59.22886 36233 ft 459 kts 33°
2026-05-09 02:09 -35.90534 -59.20566 35992 ft 461 kts 33°
2026-05-09 02:09 -35.87942 -59.18236 35730 ft 463 kts 33°
2026-05-09 02:09 -35.85332 -59.15891 34958 ft 468 kts 33°
2026-05-09 02:10 -35.82689 -59.13517 34049 ft 474 kts 33°
2026-05-09 02:10 -35.80020 -59.11124 33111 ft 478 kts 33°
2026-05-09 02:10 -35.77325 -59.08712 32279 ft 480 kts 33°
2026-05-09 02:10 -35.74641 -59.06310 31445 ft 476 kts 33°
2026-05-09 02:11 -35.71965 -59.03918 30057 ft 479 kts 33°
2026-05-09 02:11 -35.69282 -59.01522 28905 ft 475 kts 33°
2026-05-09 02:11 -35.66619 -58.99144 27715 ft 472 kts 33°
2026-05-09 02:11 -35.63979 -58.96787 26553 ft 468 kts 33°
2026-05-09 02:12 -35.61351 -58.94446 25322 ft 469 kts 33°
2026-05-09 02:12 -35.58690 -58.92084 24331 ft 473 kts 33°
2026-05-09 02:12 -35.56040 -58.89730 23530 ft 470 kts 33°
2026-05-09 02:12 -35.53398 -58.87383 22699 ft 469 kts 33°
2026-05-09 02:13 -35.50771 -58.85048 21895 ft 467 kts 33°
2026-05-09 02:13 -35.48155 -58.82727 21139 ft 464 kts 33°
2026-05-09 02:13 -35.45553 -58.80418 20380 ft 460 kts 33°
2026-05-09 02:13 -35.42973 -58.78131 19649 ft 457 kts 33°
2026-05-09 02:14 -35.40412 -58.75865 18925 ft 453 kts 33°
2026-05-09 02:14 -35.37876 -58.73623 18236 ft 448 kts 33°
2026-05-09 02:14 -35.35359 -58.71400 17561 ft 444 kts 33°
2026-05-09 02:14 -35.32869 -58.69199 16905 ft 440 kts 33°
2026-05-09 02:15 -35.30408 -58.67024 16297 ft 436 kts 33°
2026-05-09 02:15 -35.27964 -58.64867 15697 ft 432 kts 34°
2026-05-09 02:15 -35.25540 -58.62731 15131 ft 429 kts 33°
2026-05-09 02:15 -35.23134 -58.60613 14578 ft 425 kts 34°
2026-05-09 02:16 -35.20747 -58.58512 14014 ft 422 kts 34°
2026-05-09 02:16 -35.18376 -58.56427 13428 ft 419 kts 34°
2026-05-09 02:16 -35.16026 -58.54361 12846 ft 416 kts 34°
2026-05-09 02:16 -35.13692 -58.52310 12229 ft 412 kts 34°
2026-05-09 02:17 -35.11409 -58.50307 11597 ft 397 kts 34°
2026-05-09 02:17 -35.09211 -58.48381 11167 ft 379 kts 34°
2026-05-09 02:17 -35.07146 -58.46570 11034 ft 355 kts 33°
2026-05-09 02:17 -35.05206 -58.44866 10907 ft 334 kts 33°
2026-05-09 02:18 -35.03374 -58.43261 10669 ft 319 kts 33°
2026-05-09 02:18 -35.01586 -58.41703 10212 ft 314 kts 33°
2026-05-09 02:18 -34.99820 -58.40164 9687 ft 312 kts 33°
2026-05-09 02:18 -34.98062 -58.38631 9132 ft 311 kts 33°
2026-05-09 02:19 -34.96311 -58.37103 8575 ft 309 kts 33°
2026-05-09 02:19 -34.94569 -58.35586 8024 ft 307 kts 33°
2026-05-09 02:19 -34.92841 -58.34081 7469 ft 305 kts 32°
2026-05-09 02:19 -34.91127 -58.32586 6910 ft 302 kts 32°
2026-05-09 02:20 -34.89424 -58.31100 6326 ft 301 kts 32°
2026-05-09 02:20 -34.87731 -58.29623 5765 ft 299 kts 32°
2026-05-09 02:20 -34.86049 -58.28158 5207 ft 297 kts 32°
2026-05-09 02:20 -34.84389 -58.26715 4881 ft 292 kts 32°
2026-05-09 02:21 -34.82731 -58.25276 4823 ft 294 kts 32°
2026-05-09 02:21 -34.81072 -58.23836 4707 ft 293 kts 32°
2026-05-09 02:21 -34.79417 -58.22400 4340 ft 291 kts 32°
2026-05-09 02:21 -34.77768 -58.21003 3962 ft 289 kts 29°
2026-05-09 02:22 -34.76100 -58.19681 3596 ft 285 kts 28°
2026-05-09 02:22 -34.74434 -58.18393 3191 ft 283 kts 27°
2026-05-09 02:22 -34.72741 -58.17228 2912 ft 275 kts 15°
2026-05-09 02:22 -34.70939 -58.17023 2698 ft 251 kts 344°
2026-05-09 02:23 -34.69412 -58.17788 2582 ft 228 kts 318°
2026-05-09 02:23 -34.68403 -58.19138 2508 ft 207 kts 299°
2026-05-09 02:23 -34.67630 -58.20544 2507 ft 194 kts 300°
2026-05-09 02:23 -34.66898 -58.21856 2507 ft 184 kts 299°
2026-05-09 02:24 -34.66189 -58.23128 2509 ft 181 kts 298°
2026-05-09 02:24 -34.65486 -58.24395 2509 ft 181 kts 300°
2026-05-09 02:24 -34.64786 -58.25658 2509 ft 181 kts 299°
2026-05-09 02:24 -34.64085 -58.26921 2518 ft 180 kts 299°
2026-05-09 02:25 -34.63385 -58.28177 2516 ft 181 kts 299°
2026-05-09 02:25 -34.62681 -58.29441 2245 ft 180 kts 300°
2026-05-09 02:25 -34.61980 -58.30698 2004 ft 180 kts 301°
2026-05-09 02:25 -34.61277 -58.31960 1771 ft 181 kts 301°
2026-05-09 02:26 -34.60576 -58.33223 1528 ft 181 kts 302°
2026-05-09 02:26 -34.59870 -58.34490 1288 ft 183 kts 303°
2026-05-09 02:26 -34.59172 -58.35743 1049 ft 174 kts 303°
2026-05-09 02:26 -34.58528 -58.36898 829 ft 155 kts 303°
2026-05-09 02:27 -34.57948 -58.37917 583 ft 141 kts 304°
2026-05-09 02:27 -34.57425 -58.38867 349 ft 132 kts 302°
2026-05-09 02:27 -34.56922 -58.39781 214 ft 130 kts 303°
2026-05-09 02:27 -34.56423 -58.40678 38 ft 123 kts 303°
2026-05-09 02:28 -34.56110 -58.41241 27 ft 35 kts 304°
2026-05-09 02:28 -34.56055 -58.41363 26 ft 12 kts 263°
2026-05-09 02:28 -34.56084 -58.41408 26 ft 0 kts 210°
2026-05-09 02:28 -34.56088 -58.41411 26 ft 2 kts 211°
2026-05-09 02:29 -34.56100 -58.41421 27 ft 3 kts 216°
2026-05-09 02:29 -34.56128 -58.41445 27 ft 7 kts 215°
2026-05-09 02:29 -34.56176 -58.41478 27 ft 8 kts 189°
2026-05-09 02:29 -34.56216 -58.41430 27 ft 8 kts 96°
2026-05-09 02:30 -34.56193 -58.41400 27 ft 0 kts 41°
2026-05-09 02:30 0.01276 0.00001 53808 ft 0 kts
2026-05-09 02:31 -54.84299 -68.30962 79 ft 0 kts 176°
2026-05-09 02:31 -54.84259 -68.27703 84 ft 0 kts 266°